Overview Statistics Trail Chart Weather Telemetry Raw packets
 

This is the latest recevied weather packets stored in our database for station/object HG5CJW-10. If no packets are shown the sender has not sent any weather packets the latest 10 day(s).

<< 18 19 20 21 22 23 24 >>
Time Temp. Humidity Pressure Rain* Wind** Luminosity Snow
1788184039 30° C 38% 1033.5 hPa - - - -
1788183138 29.44° C 38% 1034 hPa - - - -
1788181338 29.44° C 39% 1033.9 hPa - - - -
1788180438 29.44° C 39% 1034.1 hPa - - - -
1788179538 28.89° C 39% 1034.2 hPa - - - -
1788178638 28.89° C 39% 1034.3 hPa - - - -
1788177738 28.89° C 39% 1034.5 hPa - - - -
1788176838 28.33° C 39% 1034.5 hPa - - - -
1788175938 28.33° C 39% 1034.6 hPa - - - -
1788175038 27.78° C 40% 1034.5 hPa - - - -
1788174132 27.78° C 40% 1034.9 hPa - - - -
1788173232 27.22° C 41% 1035.1 hPa - - - -
1788172332 27.22° C 41% 1035.2 hPa - - - -
1788171432 26.67° C 41% 1035.3 hPa - - - -
1788170532 26.11° C 42% 1035.3 hPa - - - -
1788168732 25.56° C 43% 1035.5 hPa - - - -
1788167832 25° C 44% 1035.6 hPa - - - -
1788166932 24.44° C 44% 1035.6 hPa - - - -
1788166032 23.89° C 45% 1035.8 hPa - - - -
1788165132 23.33° C 46% 1035.8 hPa - - - -
1788164232 22.78° C 47% 1035.7 hPa - - - -
1788163332 22.22° C 48% 1035.7 hPa - - - -
1788162432 21.67° C 49% 1035.8 hPa - - - -
1788161531 20.56° C 50% 1035.2 hPa - - - -
1788157926 20.56° C 53% 1035.7 hPa - - - -

* Rain since midnight (hover to see other rain measurements)
** Current wind speed in m/s (hover to see current wind gust speed)